Content
SEND FEEDBACK

Daily
Averages
Monthly
Summary
United States of America

ASATDAS, GUAM


Home > North America > United States > Guam
Elevation: 186 meters     Latitude: 13 35N     Longitude: 144 56E

WEATHER
 
SELECT A DAY
Number of Records: 215,673;   Date Range: 1/1/95 - 12/23/14
 
SHARE

PRINT THIS DATA

[ ← Previous Day ]
WEATHER ALMANAC - 22 MAY, 2013
[ Next Day → ]
[ °F ]   °C
Weather ElementAverageHighLow
Temperature29.6 °C32.8 °C (12:54 pm)26 °C (8:18 am)
Dewpoint23.8 °C25 °C (4:54 am)22.2 °C (12:54 pm)
Humidity72 %89 % (8:18 am)53 % (12:54 pm)
Barometer1012.2 hPa1014.6 hPa (8:06 am)1010.2 hPa (2:54 pm)
Wind Speed14.3 km/h24.1 km/h (8:06 am)
Wind Gust37 km/h (8:06 am)
Weather ElementAverage
Visibility15.3 km
Wind DirectionENE (66.2 °)

Weather ElementTotal
Precipitation7.87 mm
Cooling Degree Days11.1 (Base 18.3)
Growing Degree Days19.4 (Base 10)
Averaged from 29 records on 22 May, 2013
WEATHER CONDITIONS BREAKOUT
WIND DIRECTION BREAKOUT
WEATHER BY HOUR - 22 MAY, 2013
[ °F ]   °C
Local TimeTemperatureDewpointHumidityBarometerVisibilityWind DirectionWind SpeedGust SpeedPrecipitationEventsConditions
1:54 AM28.3 °C23.9 °C77 %1012.2 hPa16.1 kmNE (50°)9.3 km/hClear
2:54 AM27.8 °C23.9 °C79 %1011.9 hPa16.1 kmNNE (20°)5.6 km/hClear
3:54 AM27.8 °C23.9 °C79 %1011.5 hPa16.1 kmNE (40°)7.4 km/hClear
4:54 AM27.8 °C25 °C85 %1011.9 hPa16.1 kmENE (60°)13 km/h0.25 mmScattered Clouds
5:54 AM26.7 °C23.9 °C85 %1012.2 hPa16.1 kmNE (50°)13 km/hScattered Clouds
6:54 AM27.2 °C24.4 °C85 %1012.9 hPa16.1 kmNE (50°)7.4 km/hScattered Clouds
7:54 AM27.2 °C23.9 °C82 %1013.2 hPa16.1 kmNNE (20°)16.7 km/h0 mmMostly Cloudy
8:06 AM27 °C24 °C84 %1014.6 hPa2.4 kmNE (50°)24.1 km/h37 km/h0.25 mmRainHeavy Rain
8:18 AM26 °C24 °C89 %1014.6 hPa4.8 kmNorth (10°)13 km/h3.3 mmRainLight Rain
8:54 AM28.9 °C23.9 °C74 %1013.5 hPa16.1 kmCalm3.3 mmScattered Clouds
9:54 AM30.6 °C24.4 °C69 %1012.9 hPa16.1 kmENE (70°)14.8 km/hScattered Clouds
10:01 AM31 °C24 °C66 %1013.9 hPa16.1 kmEast (80°)14.8 km/hMostly Cloudy
10:13 AM32 °C24 °C62 %1013.9 hPa16.1 kmEast (80°)16.7 km/hScattered Clouds
10:54 AM32.2 °C23.3 °C59 %1012.5 hPa16.1 kmEast (80°)18.5 km/hScattered Clouds
11:23 AM32 °C24 °C62 %1013.2 hPa16.1 kmEast (90°)20.4 km/hMostly Cloudy
11:43 AM32 °C23 °C59 %1012.9 hPa16.1 kmEast (100°)22.2 km/hMostly Cloudy
11:54 AM32.2 °C23.3 °C59 %1011.9 hPa16.1 kmEast (80°)18.5 km/hMostly Cloudy
12:54 PM32.8 °C22.2 °C53 %1011.2 hPa16.1 kmEast (100°)18.5 km/hPartly Cloudy
1:54 PM32.2 °C22.8 °C57 %1010.8 hPa16.1 kmEast (90°)14.8 km/hPartly Cloudy
2:54 PM32.8 °C22.8 °C55 %1010.2 hPa16.1 kmEast (100°)22.2 km/h33.3 km/hClear
3:54 PM32.2 °C22.2 °C55 %1010.2 hPa16.1 kmENE (70°)22.2 km/hScattered Clouds
4:54 PM31.1 °C23.9 °C65 %1010.2 hPa16.1 kmENE (60°)18.5 km/hScattered Clouds
5:54 PM29.4 °C25 °C77 %1010.8 hPa16.1 kmEast (80°)16.7 km/h0.51 mmClear
6:54 PM28.9 °C24.4 °C76 %1011.2 hPa16.1 kmEast (80°)11.1 km/hPartly Cloudy
7:54 PM28.3 °C24.4 °C79 %1012.2 hPa16.1 kmEast (80°)11.1 km/h0.25 mmScattered Clouds
8:54 PM28.3 °C25 °C82 %1012.5 hPa16.1 kmEast (90°)7.4 km/hClear
9:54 PM28.3 °C24.4 °C79 %1012.9 hPa16.1 kmEast (80°)9.3 km/h0 mmScattered Clouds
10:54 PM27.8 °C23.9 °C79 %1012.5 hPa16.1 kmENE (70°)14.8 km/hMostly Cloudy
11:54 PM28.3 °C23.9 °C77 %1012.2 hPa16.1 kmEast (90°)13 km/hClear
Hourly data recorded from PGUM, located 0 kilometers away from Asatdas, Guam







STORIES FROM OUR PARTNERS